Weather History for Jackson, MN

Change the Weather History Date:

Monday, September 30, 2013

  Actual Average Record
Temperature  
Mean Temperature 68 °F -  
Max Temperature 80 °F 63 °F 84 °F (2000)
Min Temperature 57 °F 40 °F 30 °F (2003)
Cooling Degree Days 4    
Growing Degree Days 18 (Base 50)    
Moisture  
Dew Point 44 °F    
Average Humidity 45    
Maximum Humidity 63    
Minimum Humidity 24    
Precipitation  
Precipitation 0.00 in - - ()
Sea Level Pressure  
Sea Level Pressure 29.70 in    
Wind  
Wind Speed 15 mph (SSW)    
Max Wind Speed 21 mph    
Max Gust Speed 28 mph    
Visibility 10 miles    
Events      
Averages and records for this station are not official NWS values.
T = Trace of Precipitation, MM = Missing Value Source: NWS Daily Summary

Daily Weather History Graph

Daily Weather History Graph

Search for Another Location

Airport:

Trip Planner

Search our weather history database for the weather conditions in past years. The results will help you decide how hot, cold, wet, or windy it might be!

Date:

Astronomy

Sep. 30, 2013 Rise Set
Actual Time 7:16 AM CDT 7:02 PM CDT
Civil Twilight 6:48 AM CDT 7:30 PM CDT
Nautical Twilight 6:14 AM CDT 8:04 PM CDT
Astronomical Twilight 5:40 AM CDT 8:37 PM CDT
Moon 2:47 AM CDT (9/30) 4:39 PM CDT (9/30)
Length of Visible Light 12h 42m
Length of Day
11h 45m
Waning Crescent, 19% of the Moon is Illuminated
Sep 30
Waning Crescent
Oct 4
New
Oct 11
First Quarter
Oct 18
Full
Oct 26
Last Quarter

Hourly Weather History & Observations

Time (CDT) Temp. Dew Point Humidity Pressure Visibility Wind Dir Wind Speed Gust Speed Precip Events Conditions
12:13 AM 60.8 °F 41.0 °F 48% 29.82 in 10.0 mi South 12.7 mph 17.3 mph N/A   Clear
12:33 AM 59.0 °F 42.8 °F 55% 29.80 in 10.0 mi South 13.8 mph - N/A   Clear
12:54 AM 59.0 °F 42.8 °F 55% 29.80 in 10.0 mi South 12.7 mph 19.6 mph N/A   Clear
1:13 AM 59.0 °F 42.8 °F 55% 29.80 in 10.0 mi South 12.7 mph 18.4 mph N/A   Clear
1:33 AM 59.0 °F 42.8 °F 55% 29.80 in 10.0 mi South 12.7 mph - N/A   Clear
1:54 AM 59.0 °F 42.8 °F 55% 29.80 in 10.0 mi South 13.8 mph - N/A   Clear
2:13 AM 59.0 °F 42.8 °F 55% 29.80 in 10.0 mi South 15.0 mph - N/A   Clear
2:33 AM 59.0 °F 42.8 °F 55% 29.79 in 10.0 mi South 12.7 mph 17.3 mph N/A   Clear
2:54 AM 59.0 °F 42.8 °F 55% 29.78 in 10.0 mi South 15.0 mph - N/A   Clear
3:13 AM 59.0 °F 42.8 °F 55% 29.78 in 10.0 mi South 12.7 mph - N/A   Clear
3:33 AM 59.0 °F 42.8 °F 55% 29.76 in 10.0 mi South 15.0 mph 20.7 mph N/A   Clear
3:54 AM 60.8 °F 42.8 °F 52% 29.75 in 10.0 mi South 13.8 mph 21.9 mph N/A   Clear
4:13 AM 60.8 °F 42.8 °F 52% 29.75 in 10.0 mi South 16.1 mph 21.9 mph N/A   Clear
4:33 AM 60.8 °F 42.8 °F 52% 29.76 in 10.0 mi SSW 13.8 mph 23.0 mph N/A   Clear
4:54 AM 60.8 °F 42.8 °F 52% 29.75 in 10.0 mi South 16.1 mph 23.0 mph N/A   Clear
5:13 AM 60.8 °F 44.6 °F 55% 29.74 in 10.0 mi South 17.3 mph 25.3 mph N/A   Clear
5:33 AM 59.0 °F 44.6 °F 59% 29.73 in 10.0 mi SSW 19.6 mph 23.0 mph N/A   Clear
5:54 AM 59.0 °F 44.6 °F 59% 29.73 in 10.0 mi South 13.8 mph 20.7 mph N/A   Clear
6:13 AM 59.0 °F 44.6 °F 59% 29.73 in 10.0 mi South 17.3 mph 21.9 mph N/A   Clear
6:33 AM 59.0 °F 44.6 °F 59% 29.72 in 10.0 mi South 18.4 mph 25.3 mph N/A   Clear
6:54 AM 59.0 °F 44.6 °F 59% 29.72 in 10.0 mi South 18.4 mph 24.2 mph N/A   Clear
7:13 AM 59.0 °F 44.6 °F 59% 29.72 in 10.0 mi South 13.8 mph - N/A   Clear
7:33 AM 57.2 °F 44.6 °F 63% 29.72 in 10.0 mi South 11.5 mph 16.1 mph N/A   Clear
7:54 AM 59.0 °F 44.6 °F 59% 29.72 in 10.0 mi South 12.7 mph - N/A   Clear
8:13 AM 59.0 °F 44.6 °F 59% 29.72 in 10.0 mi South 13.8 mph 21.9 mph N/A   Clear
8:33 AM 60.8 °F 44.6 °F 55% 29.72 in 10.0 mi SSW 16.1 mph 24.2 mph N/A   Clear
8:54 AM 60.8 °F 44.6 °F 55% 29.71 in 10.0 mi SSW 16.1 mph 21.9 mph N/A   Clear
9:13 AM 62.6 °F 44.6 °F 52% 29.71 in 10.0 mi South 17.3 mph 25.3 mph N/A   Clear
9:33 AM 62.6 °F 44.6 °F 52% 29.71 in 10.0 mi SSW 19.6 mph 27.6 mph N/A   Clear
9:53 AM 64.4 °F 44.6 °F 49% 29.71 in 10.0 mi SSW 19.6 mph 25.3 mph N/A   Clear
10:13 AM 64.4 °F 44.6 °F 49% 29.71 in 10.0 mi SSW 18.4 mph 21.9 mph N/A   Clear
10:33 AM 66.2 °F 44.6 °F 46% 29.71 in 10.0 mi SSW 19.6 mph 26.5 mph N/A   Clear
10:53 AM 68.0 °F 44.6 °F 43% 29.70 in 10.0 mi SSW 20.7 mph 26.5 mph N/A   Clear
11:13 AM 68.0 °F 44.6 °F 43% 29.69 in 10.0 mi SSW 17.3 mph - N/A   Clear
11:33 AM 69.8 °F 44.6 °F 40% 29.69 in 10.0 mi SSW 17.3 mph 23.0 mph N/A   Clear
11:53 AM 71.6 °F 44.6 °F 38% 29.69 in 10.0 mi SSW 18.4 mph 24.2 mph N/A   Clear
12:13 PM 71.6 °F 44.6 °F 38% 29.69 in 10.0 mi SSW 16.1 mph 25.3 mph N/A   Clear
12:33 PM 73.4 °F 44.6 °F 36% 29.70 in 10.0 mi SSW 18.4 mph 23.0 mph N/A   Clear
12:53 PM 73.4 °F 44.6 °F 36% 29.70 in 10.0 mi SSW 19.6 mph 24.2 mph N/A   Clear
1:13 PM 75.2 °F 44.6 °F 34% 29.69 in 10.0 mi SSW 19.6 mph 23.0 mph N/A   Clear
1:33 PM 75.2 °F 42.8 °F 31% 29.68 in 10.0 mi SSW 18.4 mph 25.3 mph N/A   Clear
1:53 PM 77.0 °F 42.8 °F 29% 29.68 in 10.0 mi SSW 16.1 mph 21.9 mph N/A   Clear
2:13 PM 78.8 °F 41.0 °F 26% 29.67 in 10.0 mi South 19.6 mph 24.2 mph N/A   Clear
2:33 PM 78.8 °F 41.0 °F 26% 29.66 in 10.0 mi South 18.4 mph 23.0 mph N/A   Clear
2:54 PM 80.6 °F 41.0 °F 24% 29.65 in 10.0 mi South 19.6 mph 24.2 mph N/A   Clear
3:13 PM 80.6 °F 41.0 °F 24% 29.65 in 10.0 mi SSW 16.1 mph 26.5 mph N/A   Clear
3:33 PM 80.6 °F 41.0 °F 24% 29.64 in 10.0 mi South 17.3 mph 26.5 mph N/A   Clear
3:54 PM 80.6 °F 41.0 °F 24% 29.64 in 10.0 mi SSW 18.4 mph 24.2 mph N/A   Clear
4:13 PM 80.6 °F 41.0 °F 24% 29.64 in 10.0 mi SSW 13.8 mph 20.7 mph N/A   Clear
4:33 PM 80.6 °F 41.0 °F 24% 29.64 in 10.0 mi SSW 16.1 mph 23.0 mph N/A   Clear
4:54 PM 80.6 °F 41.0 °F 24% 29.64 in 10.0 mi SSW 19.6 mph 23.0 mph N/A   Clear
5:13 PM 80.6 °F 41.0 °F 24% 29.64 in 10.0 mi SSW 11.5 mph 20.7 mph N/A   Clear
5:33 PM 80.6 °F 41.0 °F 24% 29.64 in 10.0 mi SSW 11.5 mph 19.6 mph N/A   Clear
5:54 PM 78.8 °F 42.8 °F 28% 29.64 in 10.0 mi SSW 13.8 mph 18.4 mph N/A   Clear
6:13 PM 78.8 °F 42.8 °F 28% 29.65 in 10.0 mi SSW 10.4 mph - N/A   Clear
6:34 PM 77.0 °F 42.8 °F 29% 29.65 in 10.0 mi SSW 12.7 mph 17.3 mph N/A   Clear
6:53 PM 75.2 °F 42.8 °F 31% 29.65 in 10.0 mi South 12.7 mph 19.6 mph N/A   Clear
7:13 PM 73.4 °F 44.6 °F 36% 29.65 in 10.0 mi South 11.5 mph 17.3 mph N/A   Clear
7:33 PM 71.6 °F 44.6 °F 38% 29.65 in 10.0 mi South 11.5 mph 17.3 mph N/A   Clear
7:53 PM 71.6 °F 44.6 °F 38% 29.66 in 10.0 mi South 10.4 mph - N/A   Clear
8:13 PM 69.8 °F 46.4 °F 43% 29.67 in 10.0 mi South 10.4 mph - N/A   Clear
8:33 PM 69.8 °F 46.4 °F 43% 29.67 in 10.0 mi South 10.4 mph 17.3 mph N/A   Clear
8:53 PM 69.8 °F 48.2 °F 46% 29.67 in 10.0 mi South 10.4 mph - N/A   Clear
9:13 PM 69.8 °F 48.2 °F 46% 29.67 in 10.0 mi South 11.5 mph 17.3 mph N/A   Clear
9:34 PM 68.0 °F 48.2 °F 49% 29.68 in 10.0 mi South 12.7 mph 17.3 mph N/A   Clear
9:53 PM 68.0 °F 48.2 °F 49% 29.68 in 10.0 mi South 12.7 mph 18.4 mph N/A   Clear
10:13 PM 68.0 °F 46.4 °F 46% 29.68 in 10.0 mi South 12.7 mph 18.4 mph N/A   Clear
10:33 PM 68.0 °F 48.2 °F 49% 29.68 in 10.0 mi South 13.8 mph 18.4 mph N/A   Clear
10:53 PM 68.0 °F 48.2 °F 49% 29.68 in 10.0 mi South 11.5 mph 17.3 mph N/A   Clear
11:13 PM 64.4 °F 48.2 °F 56% 29.68 in 10.0 mi South 10.4 mph - N/A   Clear
11:33 PM 64.4 °F 48.2 °F 56% 29.67 in 10.0 mi South 12.7 mph - N/A   Clear
11:54 PM 64.4 °F 48.2 °F 56% 29.67 in 10.0 mi SSW 12.7 mph - N/A   Clear